[[{"header":{"parameterUnit":"m.s-1","parameterCategory":1,"la1":30.2991,"la2":30.254,"lo1":-89.0895,"lo2":-89.0444,"dy":0.0017,"dx":0.0017,"nx":28,"ny":28,"refTime":"2025-11-24T03:00:00:Z","depth":0,"parameterNumber":2,"parameterNumberName":"U-component_of_WINDS"},"data":[0,0,0,0,0,0,0,0,0,0,0,0,0,0,0,0,0,0,0,0,0,0,0,0,0,0,0,0,0,0,0,0,0,0,0,0,0,0,0,0,0,0,0,0,0,0,0,0,0,0,0,0,0,0,0,0,0,0,-1.9431,-1.9432,0,-1.9554,-1.9555,-1.9556,-1.9594,-1.9594,-1.9593,-1.9593,-1.9717,-1.9721,-1.9725,0,0,0,0,0,0,0,0,0,0,0,0,0,-1.9229,-1.9232,-1.9431,-1.9432,-1.9434,-1.9553,-1.9555,-1.9557,-1.9594,-1.9594,-1.9593,-1.9592,-1.9716,-1.9721,-1.9725,0,0,0,0,0,0,0,0,0,0,0,0,0,-1.933,-1.9233,-1.943,-1.9467,-1.9472,-1.9553,-1.9555,-1.9557,-1.9595,-1.9594,-1.9593,-1.9592,-1.9715,-1.972,-1.9726,-1.9779,0,0,-1.9744,-1.9746,0,0,0,0,0,0,0,0,-1.9325,-1.9338,-1.946,-1.9465,-1.947,-1.9558,-1.953,-1.9632,-1.9595,-1.9548,-1.9593,-1.9592,-1.9665,-1.9675,-1.97,-1.9785,-1.9791,-1.9744,-1.9748,-1.975,-1.9752,0,0,0,0,0,0,0,-1.9317,-1.9333,-1.9479,-1.9462,-1.9468,-1.9477,-1.9491,-1.9549,-1.961,-1.9552,-1.9555,-1.9569,-1.9667,-1.9694,-1.9703,-1.9793,-1.9744,-1.9749,-1.9753,-1.9755,-1.9929,-1.993,0,0,0,0,0,0,-1.9304,-1.9327,-1.9475,-1.9483,-1.9394,-1.9482,-1.9497,-1.953,-1.9609,-1.962,-1.957,-1.957,-1.9684,-1.9696,-1.9707,-1.9776,-1.975,-1.9756,-1.9759,-1.9928,-1.9929,-1.993,0,0,0,0,0,0,-1.93,-1.9317,-1.947,-1.9406,-1.9426,-1.9486,-1.9524,-1.9533,-1.956,-1.9623,-1.9634,-1.9586,-1.9684,-1.9699,-1.9762,-1.978,-1.9758,-1.9763,-1.9926,-1.9928,-1.993,-1.9912,0,0,0,0,0,0,-1.9294,-1.9315,-1.9336,-1.9406,-1.9429,-1.9523,-1.9525,-1.9536,-1.957,-1.9572,-1.9641,-1.9651,-1.9685,-1.9753,-1.9767,-1.9788,-1.9768,-1.9925,-1.9927,-1.9929,-1.9911,-1.9913,-1.9914,0,0,0,0,0,-1.9286,-1.9326,-1.9337,-1.9355,-1.9457,-1.9524,-1.9537,-1.9575,-1.9571,-1.9593,-1.9633,-1.9649,-1.9776,-1.9759,-1.9775,-1.9798,-1.9924,-1.9927,-1.9929,-1.991,-1.9913,-1.9914,0,0,0,0,0,0,-1.9257,-1.9336,-1.9349,-1.9412,-1.9461,-1.953,-1.9558,-1.9576,-1.9626,-1.9626,-1.9671,-1.9686,-1.9745,-1.9778,-1.9757,-1.9855,-1.9851,-1.9857,-1.9831,-1.9833,-1.9835,-1.9825,-1.9773,0,0,0,0,0,-1.9258,-1.9305,-1.9372,-1.9421,-1.9445,-1.9497,-1.9528,-1.9553,-1.9605,-1.9626,-1.9671,-1.972,-1.9772,-1.9804,-1.9855,-1.9916,-1.9932,-1.994,-1.9942,-1.9943,-1.9947,-1.9983,-1.9987,-1.9939,-1.9939,-1.9939,0,0,-1.926,-1.9309,-1.9336,-1.9417,-1.9457,-1.9506,-1.9514,-1.9565,-1.9602,-1.9633,-1.9695,-1.973,-1.9788,-1.985,-1.988,-1.988,-1.9964,-1.9946,-1.9947,-1.9951,-1.9986,-1.999,-1.9994,-1.9941,-1.994,-1.994,0,0,-1.9289,-1.9331,-1.9377,-1.9417,-1.9479,-1.9514,-1.9524,-1.9591,-1.9615,-1.9678,-1.9703,-1.9747,-1.9834,-1.9875,-1.9907,-1.9952,-1.9968,-1.9967,-1.9975,-2.0009,-2.0013,-2.0017,-2.0033,-2.0038,-1.9972,-1.9972,-1.9972,0,-1.9283,-1.9357,-1.9398,-1.9448,-1.9482,-1.9514,-1.9561,-1.9599,-1.9673,-1.9696,-1.9695,-1.9806,-1.9847,-1.9919,-1.993,-1.9955,-1.9969,-1.9959,-2.0009,-2.0013,-2.0017,-2.0033,-2.0039,-1.9971,-1.9971,-1.9971,-1.9971,0,-1.9348,-1.9399,-1.9429,-1.9501,-1.9539,-1.9587,-1.9635,-1.9668,-1.969,-1.9725,-1.9789,-1.984,-1.9901,-1.9921,-1.9942,-1.9996,-1.9994,-2.0,-1.9997,-2.0021,-2.0036,-2.0042,-1.997,-1.9971,-1.9971,-1.9971,0,0,-1.9361,-1.9455,-1.9465,-1.9499,-1.9569,-1.9609,-1.9659,-1.972,-1.9748,-1.9798,-1.9841,-1.9914,-1.9921,-1.9957,-1.9984,-2.0014,-2.0046,-2.0017,-2.0019,-2.002,-2.0109,-2.0103,-2.0109,-2.0058,-2.0059,-2.006,-2.0104,0,-1.9399,-1.9489,-1.9527,-1.9599,-1.9647,-1.9678,-1.9721,-1.9769,-1.9803,-1.9849,-1.9886,-1.9937,-1.9942,-1.9964,-1.9995,-2.0036,-2.0065,-2.0033,-2.0098,-2.0099,-2.0082,-2.0118,-2.0112,-2.015,-2.011,-2.0111,-2.0112,0,-1.9454,-1.9506,-1.9583,-1.9648,-1.967,-1.9708,-1.9767,-1.981,-1.9865,-1.9888,-1.9929,-1.9954,-2.0007,-2.0001,-2.0075,-2.0053,-2.0082,-2.0105,-2.0108,-2.0115,-2.0107,-2.0125,-2.0164,-2.0169,-2.0122,-2.0121,-2.012,0,-1.9456,-1.9544,-1.9602,-1.963,-1.9707,-1.9733,-1.9767,-1.9821,-1.9855,-1.9907,-1.993,-1.9986,-2.0017,-2.0061,-2.0101,-2.0093,-2.0171,-2.0168,-2.0191,-2.019,-2.0206,-2.0204,-2.0249,-2.0225,-2.0225,-2.0224,-2.0224,0,-1.9494,-1.954,-1.9604,-1.9639,-1.9692,-1.9735,-1.9786,-1.9822,-1.987,-1.9913,-1.9943,-1.9983,-2.0034,-2.008,-2.0112,-2.0168,-2.0182,-2.0202,-2.0209,-2.0199,-2.0196,-2.0218,-2.0216,-2.0226,-2.0226,-2.0225,-2.0225,0,-1.9504,-1.9549,-1.9614,-1.9682,-1.9701,-1.9736,-1.9795,-1.983,-1.9866,-1.992,-1.9935,-1.9991,-2.0047,-2.0091,-2.0164,-2.0185,-2.0245,-2.0254,-2.0226,-2.023,-2.025,-2.0248,-2.031,-2.0321,-2.0289,-2.029,-2.029,0,-1.9525,-1.9561,-1.9634,-1.9665,-1.9698,-1.9748,-1.9783,-1.9827,-1.9863,-1.9928,-1.9956,-2.0014,-2.0063,-2.0151,-2.0198,-2.0254,-2.0264,-2.0282,-2.0273,-2.0261,-2.0264,-2.0261,-2.0265,-2.0283,-2.0283,-2.0283,-2.0283,0,-1.9558,-1.9578,-1.9628,-1.9686,-1.9727,-1.9774,-1.9822,-1.9846,-1.9899,-1.9937,-1.9995,-2.0033,-2.0108,-2.0165,-2.0226,-2.026,-2.0281,-2.0286,-2.0294,-2.0283,-2.0266,-2.0275,-2.0229,-2.0284,-2.0284,-2.0284,-2.0284,-2.0284,-1.9574,-1.9608,-1.9664,-1.9719,-1.976,-1.9804,-1.9841,-1.9881,-1.993,-1.9995,-2.0018,-2.0077,-2.0132,-2.0216,-2.0251,-2.0297,-2.0299,-2.0311,-2.0314,-2.0316,-2.0315,-2.0259,-2.0309,-2.0309,-2.0309,-2.0309,-2.0309,0,-1.9609,-1.9646,-1.9696,-1.9762,-1.9805,-1.9821,-1.9875,-1.991,-1.9962,-2.0011,-2.0059,-2.0125,-2.0181,-2.0232,-2.0291,-2.0318,-2.0329,-2.0332,-2.033,-2.0338,-2.031,-2.0297,-2.0322,-2.0322,-2.0322,-2.0322,-2.0322,-2.0322,-1.9631,-1.9689,-1.9716,-1.9795,-1.9833,-1.9891,-1.9921,-1.9962,-2.0001,-2.0074,-2.0121,-2.0154,-2.0204,-2.0267,-2.0319,-2.0332,-2.0352,-2.0353,-2.0369,-2.0342,-2.034,-2.0338,-2.0326,-2.0357,-2.0357,-2.0393,-2.0393,-2.0393]},{"header":{"parameterUnit":"m.s-1","parameterCategory":1,"la1":30.2991,"la2":30.254,"lo1":-89.0895,"lo2":-89.0444,"dy":0.0017,"dx":0.0017,"nx":28,"ny":28,"refTime":"2025-11-24T03:00:00:Z","depth":0,"parameterNumber":3,"parameterNumberName":"V-component_of_WINDS"},"data":[0,0,0,0,0,0,0,0,0,0,0,0,0,0,0,0,0,0,0,0,0,0,0,0,0,0,0,0,0,0,0,0,0,0,0,0,0,0,0,0,0,0,0,0,0,0,0,0,0,0,0,0,0,0,0,0,0,0,5.1756,5.1757,0,5.1805,5.1806,5.1806,5.1789,5.1788,5.1787,5.1786,5.1834,5.1836,5.1838,0,0,0,0,0,0,0,0,0,0,0,0,0,5.1647,5.1649,5.1756,5.1757,5.1758,5.1805,5.1806,5.1806,5.1789,5.1788,5.1787,5.1786,5.1833,5.1836,5.1839,0,0,0,0,0,0,0,0,0,0,0,0,0,5.1695,5.165,5.1756,5.1755,5.1755,5.1805,5.1806,5.1807,5.179,5.1788,5.1786,5.1785,5.1832,5.1836,5.1839,5.1892,0,0,5.1849,5.1851,0,0,0,0,0,0,0,0,5.1692,5.1699,5.1754,5.1755,5.1756,5.1789,5.1785,5.1835,5.179,5.1776,5.1786,5.1784,5.182,5.1825,5.1837,5.1895,5.1897,5.185,5.1852,5.1853,5.1854,0,0,0,0,0,0,0,5.1689,5.1697,5.1776,5.1755,5.1756,5.1751,5.1756,5.1794,5.1807,5.1778,5.1776,5.1783,5.182,5.1834,5.1838,5.1897,5.185,5.1853,5.1855,5.1856,5.2003,5.2005,0,0,0,0,0,0,5.1686,5.1694,5.1774,5.1777,5.1719,5.1755,5.176,5.178,5.1806,5.1809,5.1784,5.1782,5.1829,5.1834,5.184,5.1906,5.1853,5.1856,5.1858,5.2001,5.2003,5.2005,0,0,0,0,0,0,5.1683,5.1693,5.1772,5.1735,5.1745,5.1758,5.1781,5.1782,5.1796,5.1811,5.1813,5.1796,5.1828,5.1835,5.188,5.1907,5.1858,5.1861,5.1999,5.2002,5.2004,5.2036,0,0,0,0,0,0,5.168,5.1692,5.1713,5.1736,5.1747,5.1812,5.1782,5.1784,5.1802,5.1799,5.1823,5.1825,5.1827,5.1875,5.1883,5.1911,5.1864,5.1996,5.2,5.2003,5.2033,5.204,5.2046,0,0,0,0,0,5.1676,5.1719,5.1714,5.1724,5.1773,5.1813,5.182,5.1822,5.1804,5.1825,5.1835,5.1824,5.1902,5.188,5.1889,5.1918,5.1995,5.1999,5.2003,5.203,5.2039,5.2046,0,0,0,0,0,0,5.1697,5.1722,5.1717,5.1768,5.1789,5.181,5.1837,5.183,5.1856,5.1852,5.1853,5.1859,5.1905,5.1916,5.189,5.1972,5.1946,5.1952,5.1963,5.1972,5.1978,5.1975,5.1867,0,0,0,0,0,5.1708,5.1739,5.1759,5.1802,5.1813,5.1823,5.1841,5.1841,5.1862,5.187,5.1884,5.1904,5.1934,5.1953,5.1981,5.2034,5.204,5.2059,5.2065,5.207,5.2076,5.2107,5.2116,5.2019,5.2019,5.2019,0,0,5.173,5.1747,5.1767,5.1807,5.1823,5.1855,5.1831,5.1865,5.1889,5.1875,5.1919,5.193,5.1953,5.2003,5.2026,5.2013,5.2104,5.2076,5.208,5.2083,5.2112,5.2121,5.213,5.2022,5.2021,5.2021,0,0,5.1787,5.1803,5.1842,5.1859,5.1885,5.1891,5.1901,5.1924,5.1931,5.1975,5.1966,5.1994,5.2044,5.2062,5.2077,5.2143,5.2135,5.2152,5.2186,5.2216,5.2224,5.223,5.2255,5.2264,5.2157,5.2157,5.2157,0,5.1811,5.186,5.1862,5.1899,5.1917,5.1907,5.1947,5.1963,5.1996,5.2009,5.1994,5.2059,5.2073,5.2128,5.2145,5.2157,5.2168,5.2149,5.2222,5.2229,5.2236,5.2259,5.2269,5.2159,5.2159,5.2159,5.2159,0,5.1889,5.1923,5.1951,5.1985,5.2006,5.2044,5.2052,5.2073,5.2072,5.208,5.2126,5.2144,5.2176,5.2189,5.2187,5.2244,5.2236,5.2222,5.2196,5.2247,5.2269,5.2278,5.2162,5.2162,5.2161,5.216,0,0,5.196,5.1996,5.2007,5.2023,5.2051,5.2077,5.2114,5.2147,5.2165,5.2188,5.222,5.2264,5.2252,5.227,5.227,5.2296,5.2349,5.228,5.228,5.2293,5.2415,5.2427,5.2437,5.2344,5.2346,5.2347,5.2414,0,5.2021,5.2088,5.2092,5.2152,5.2184,5.2177,5.2209,5.223,5.2239,5.2267,5.2277,5.2309,5.229,5.2301,5.2326,5.2338,5.2374,5.2333,5.2374,5.2376,5.237,5.2448,5.246,5.2522,5.2423,5.2424,5.2425,0,5.21,5.2128,5.2192,5.2217,5.2231,5.226,5.2291,5.2318,5.2342,5.2347,5.2368,5.2365,5.2403,5.2376,5.243,5.2402,5.2419,5.2428,5.243,5.2435,5.2404,5.2457,5.2542,5.2552,5.2439,5.2438,5.2437,0,5.2148,5.22,5.2246,5.226,5.229,5.2311,5.2325,5.2347,5.2367,5.2393,5.2407,5.2437,5.2454,5.2478,5.2484,5.2463,5.2539,5.2511,5.2544,5.2545,5.2561,5.256,5.2652,5.257,5.257,5.257,5.257,0,5.2215,5.2255,5.2268,5.2296,5.2341,5.2345,5.239,5.2401,5.2422,5.2452,5.2447,5.2475,5.248,5.2511,5.2515,5.256,5.2567,5.2573,5.2574,5.2574,5.2574,5.2586,5.2583,5.2573,5.2572,5.2572,5.2571,0,5.2276,5.2286,5.2336,5.2361,5.2368,5.24,5.2422,5.2449,5.2458,5.2497,5.2506,5.252,5.2555,5.2563,5.2605,5.2608,5.2662,5.2658,5.2654,5.2655,5.2688,5.2685,5.2792,5.2807,5.2714,5.2715,5.2716,0,5.2319,5.235,5.2379,5.24,5.2415,5.2448,5.2469,5.2474,5.2496,5.2526,5.255,5.2585,5.2613,5.267,5.2684,5.2716,5.2714,5.2749,5.2719,5.2719,5.2716,5.2715,5.2719,5.2755,5.2756,5.2757,5.2757,0,5.2395,5.2399,5.2429,5.2463,5.2488,5.2514,5.2539,5.2556,5.2565,5.259,5.2626,5.2648,5.2692,5.2727,5.276,5.2773,5.2768,5.2767,5.2777,5.2778,5.2775,5.2779,5.2672,5.2765,5.2764,5.2763,5.2763,5.2763,5.2449,5.2477,5.2503,5.2537,5.2557,5.2581,5.2608,5.2621,5.2652,5.2689,5.269,5.273,5.2755,5.2798,5.2814,5.2846,5.2835,5.2849,5.2852,5.2856,5.286,5.277,5.2852,5.2852,5.2851,5.2851,5.2851,0,5.2526,5.2542,5.2575,5.261,5.2638,5.2631,5.2658,5.2682,5.2718,5.2741,5.277,5.2813,5.2848,5.2865,5.2899,5.2922,5.292,5.2931,5.293,5.2933,5.2867,5.2856,5.2932,5.2932,5.2932,5.2932,5.2932,5.2932,5.2569,5.2617,5.2624,5.2682,5.2698,5.2738,5.2755,5.2777,5.2796,5.2845,5.2874,5.2885,5.2907,5.2943,5.2975,5.2979,5.2993,5.3005,5.3008,5.2946,5.2938,5.293,5.292,5.3008,5.3008,5.3072,5.3073,5.3073]}]]